Location: East Horndon
(51.5667°N, 0.3500°E)
Time: 06:23:24
(UTC+00:00)

COSMOS 2428 - Pass Details

Date: 08 November 2025
Orbit: 847 x 852 km, 70.9° (Epoch: 11 December)

Event Time Altitude Azimuth Distance (km) Brightness Sun altitude
Rises 06:24:29 0° 247° (WSW) 3,406 5.4 -6.6°
Reaches altitude 10° 06:27:15 10° 258° (WSW) 2,473 4.6 -6.2°
Maximum altitude 06:32:10 29° 318° (NW) 1,506 3.6 -5.5°
Drops below altitude 10° 06:37:06 10° 18° (NNE) 2,483 5.1 -4.8°
Sets 06:39:54 0° 30° (NNE) 3,421 6.0 -4.4°
